Showing default

LEMUR-2-HOTSPUR-TOM, 66786

Orbit data source: Space-Track

LEMUR-2-HOTSPUR-TOM, 66786 is a payload satellite owned by Spire (US) in SSO that was launched on Fri, 28 Nov 2025 UTC via an FALCON 9 launch vehicle from the Air Force Western Test Range (AFWTR). Payload-class satellites include a variety of spacecraft equipped with specific instruments for various scientific and technological missions. These include communications satellites like Starlink; space stations such as the ISS; scientific satellites like the Hubble; Earth observation satellites from companies like Planet Labs, Umbra, and HawkEye 360; GPS; miniature CubeSats for education and research; and military/defense satellites.

Loading next visibility...
Identifier
66786, 2025-276EB
Orbit
SSO
Country
Flag of USUS
Related business
Manufacturer
Spire/Glasgow
Mission
Operational spacecraft
Bus & Motor
CUBESAT 3U, Unknown motor
Mass
7.6 kg wet, 7.6 kg dry
Launch date (UTC)
2025-11-28 (6 months ago)
Launch vehicle
FALCON 9
Launch site
Air Force Western Test Range (AFWTR)
Object type
Payload
Rocket body
Debris
Shape & HBR
Unknown shape, 14.5 m
Radar Cross Section
Medium (>0.1 m² and <1 m²)

Expand to show TLE details & history
Last TLE update: 1 week ago

TLE from 1 week ago
0 LEMUR-2-HOTSPUR-TOM
1 66786U 25276EB  26155.00967123  .00007736  00000-0  64493-3 0  9994
2 66786  97.5238 226.0893 0014977 169.0978 191.0573 14.98784076 28153
Epoch: 2026-06-04T00:13Z
TLE epoch observation values (Epoch: 2026-06-04T00:13:55.594Z)
Latitude
0.00001°
Longitude
-29.85243°
Altitude
583.927 km
Speed
7.563 km/s
True Right ascension
15h 04m 21s
True Declination
0° 00' 00"
Sunlit
Object was in full shadow at epoch
Visualization orbit readout
Latitude
Unknown
Longitude
Unknown
Altitude
Unknown
Speed
Unknown
Apparent Right ascension
Unknown
Apparent Declination
Unknown
Sunlit
N/A
Visualization observer readout
Local Sidereal Time
00:36:41
Azimuth
Unknown
Elevation
Unknown
Doppler factor
Unknown
Orbital elements
Apogee altitude
578.054 km
Perigee altitude
557.249 km
Semi-major axis
6,945.788 km
Eccentricity
0.0015
Inclination
97.5238°
RAAN
226.0893°
Arg. of periapsis
169.0978°
True anomaly
191.02444°
Mean anomaly
191.0573°
Eccentric anomaly
191.04087°
Mean motion
3.74939 °/min
Orbital period
96.02 mins
BSTAR
0.00064493
Loading maneuver chart data...
Computing Atmospheric mass density...
Loading historical data...
Loading historical data...
Loading historical data...
Loading historical data...
Loading historical data...
Loading historical data...
Loading historical data...

Documentation

Showing up to 5 results
|